BEIDOU 15 (C14)

Last updated on Aug. 15, 2020, 5:35 a.m. UTC

1 38775U 12050B   20227.48954361 -.00000026  00000-0  00000+0 0  9999
2 38775  55.0813 134.3382 0015565 319.7138 330.2830  1.86232360 53943
UTC
Height (km)
Latitude
Longitude
Inclination
Orbital Period
UTC large
Height (km)
Speed (km/s)
/
Latitude / Longitude
Inclination (degrees)
Orbital Period (minutes)
Azimuth
Elevation
Range (km)
Doppler Factor
iOS Compass Heading
iOS Angle

Next 30 passes for location: Hong Kong

Rise time Rise Azimuth (degrees) Set time Set Azimuth (degrees) Duration Max altitude (degrees)

No matching passes for this satellites